EW0220 Weather Reports


time (UTC)temp
C
wind
direction
speed
KPH
gust
KPH
rain 1hr
cm
rain 24hr
cm
rain mn
cm
humidity
%
barometer
mb
20260906161533 32 27 4.8 12.9 0.00 0.00 0.00 66 1012.2
20260906160031 32 329 4.8 12.9 0.00 0.00 0.00 67 1012.3
20260906154528 32 345 4.8 12.9 0.00 0.00 0.00 68 1012.3
20260906153024 31 346 1.6 9.7 0.00 0.00 0.00 71 1012.2
20260906151523 31 341 6.4 11.3 0.00 0.00 0.00 71 1012.0
20260906150026 31 324 1.6 8.0 0.00 0.00 0.00 70 1012.1
20260906144520 31 327 3.2 9.7 0.00 0.00 0.00 73 1012.1
20260906143018 31 322 0.0 3.2 0.00 0.00 0.00 72 1012.1
20260906141514 30 285 1.6 6.4 0.00 0.00 0.00 75 1012.2
20260906140018 29 297 0.0 4.8 0.00 0.00 0.00 79 1012.2
20260906134510 28 338 0.0 4.8 0.00 0.00 0.00 81 1012.2
20260906133009 28 252 0.0 1.6 0.00 0.00 0.00 78 1012.1
20260906131505 27 227 0.0 3.2 0.00 0.00 0.00 82 1012.1
20260906130002 26 223 0.0 3.2 0.00 0.00 0.00 85 1012.1
20260906124606 26 290 0.0 0.0 0.00 0.00 0.00 89 1012.1
20260906123056 25 291 0.0 0.0 0.00 0.00 0.00 90 1012.1
20260906121602 24 290 0.0 0.0 0.00 0.00 0.00 93 1012.1
20260906120053 23 291 0.0 0.0 0.00 0.00 0.00 94 1011.8
20260906114603 23 291 0.0 0.0 0.00 0.00 0.00 94 1011.6
20260906113049 23 288 0.0 1.6 0.00 0.00 0.00 94 1011.3
20260906111600 23 255 0.0 0.0 0.00 0.00 0.00 92 1011.2
20260906110044 23 259 0.0 0.0 0.00 0.00 0.00 93 1011.0
20260906104543 23 261 0.0 1.6 0.00 0.00 0.00 92 1010.9
20260906103042 23 141 0.0 0.0 0.00 0.00 0.00 93 1010.8
20260906101542 23 141 0.0 8.0 0.00 0.00 0.00 94 1010.8
20260906100043 23 98 3.2 3.2 0.00 0.00 0.00 93 1010.5
20260906094540 23 257 0.0 0.0 0.00 0.00 0.00 93 1010.3
20260906093049 23 257 0.0 3.2 0.00 0.00 0.00 94 1010.2
20260906091540 23 246 0.0 0.0 0.00 0.00 0.00 95 1010.2
20260906090039 23 222 0.0 1.6 0.00 0.00 0.00 95 1010.3
20260906084537 23 296 0.0 1.6 0.00 0.00 0.00 95 1010.3
20260906083036 23 81 0.0 1.6 0.00 0.00 0.00 95 1010.0
20260906081548 23 81 0.0 0.0 0.00 0.00 0.00 95 1010.0
20260906080034 23 81 1.6 3.2 0.00 0.00 0.00 94 1010.1
20260906074534 23 349 0.0 0.0 0.00 0.00 0.00 95 1010.1
20260906073047 23 349 0.0 0.0 0.00 0.00 0.00 95 1010.1
20260906071531 23 348 0.0 0.0 0.00 0.00 0.00 95 1010.1
20260906070038 23 349 0.0 0.0 0.00 0.00 0.00 95 1010.1
20260906064528 23 348 0.0 0.0 0.00 0.00 0.00 94 1010.1
20260906063027 24 348 0.0 0.0 0.00 0.00 0.00 94 1010.4
20260906061526 24 349 0.0 0.0 0.00 0.00 0.00 94 1010.4
20260906060023 24 348 0.0 0.0 0.00 0.00 0.00 93 1010.5
20260906054524 25 348 0.0 0.0 0.00 0.00 0.00 93 1010.7
20260906053028 25 349 0.0 3.2 0.00 0.00 0.00 93 1010.6
20260906051522 25 25 0.0 0.0 0.00 0.00 0.00 92 1010.6
20260906050016 25 25 0.0 0.0 0.00 0.00 0.00 92 1010.5
20260906044515 25 25 0.0 0.0 0.00 0.00 0.00 92 1010.5
20260906043018 25 25 0.0 0.0 0.00 0.00 0.00 91 1010.5
20260906041515 25 328 0.0 0.0 0.00 0.00 0.00 91 1010.5
20260906040014 25 328 0.0 0.0 0.00 0.00 0.00 90 1010.6
20260906034520 26 328 0.0 0.0 0.00 0.00 0.00 89 1010.5
20260906033013 26 327 0.0 0.0 0.00 0.00 0.00 88 1010.4
20260906031512 26 327 0.0 0.0 0.00 0.00 0.00 88 1010.3
20260906030012 26 327 0.0 0.0 0.00 0.00 0.00 88 1010.2
20260906024511 26 327 0.0 0.0 0.00 0.00 0.00 87 1010.1
20260906023011 26 327 0.0 0.0 0.00 0.00 0.00 87 1010.1
20260906021510 27 354 0.0 0.0 0.00 0.00 0.00 85 1010.0
20260906020010 27 354 0.0 3.2 0.00 0.00 0.00 85 1009.8
20260906014509 27 6 0.0 0.0 0.00 0.00 0.00 83 1009.7
20260906013009 28 7 0.0 0.0 0.00 0.00 0.00 83 1009.5
20260906011508 28 7 0.0 0.0 0.00 0.00 0.00 77 1009.4
20260906010009 30 7 0.0 0.0 0.00 0.00 0.00 74 1009.2
20260906004507 30 6 0.0 0.0 0.00 0.00 0.00 73 1009.1
20260906003007 31 6 0.0 0.0 0.00 0.00 0.00 66 1009.1
20260906001505 32 6 0.0 0.0 0.00 0.00 0.00 66 1009.2
20260906000005 32 6 0.0 3.2 0.00 0.00 0.00 64 1009.4
20260905234504 35 150 0.0 0.0 0.00 0.00 0.00 56 1009.3
20260905233006 35 150 0.0 1.6 0.00 0.00 0.00 51 1009.3
20260905231511 35 92 0.0 1.6 0.00 0.00 0.00 53 1009.2
20260905230003 36 67 1.6 4.8 0.00 0.00 0.00 51 1009.2
20260905224502 37 94 0.0 1.6 0.00 0.00 0.00 50 1009.3